Home > Weather > Oelde > Past weeks

Flag for Germany Past Weather in Oelde, North Rhine-Westphalia, Germany — Yesterday and Last 2 Weeks

Now
68 °F

Fog.


Feels Like: 68 °F
Forecast: 59 / 67 °F
Wind: 5 mph from Northwest

Location: Paderborn / Lippstadt

Current Time: Jun 24, 2016 at 10:32:16 PM

Latest Report: Jun 24, 2016 at 9:50 PM


Visibility: 2 mi

Pressure: 30.04 "Hg

Humidity: 94%

Dew Point: 66 °F

Location of OeldeLocation

Past Weather in Oelde — Graph

°F

Oelde Temperature Yesterday

Maximum temperature yesterday: 90 °F (at 2:50 PM)
Minimum temperature yesterday: 61 °F (at 3:20 AM)
Average temperature yesterday: 78 °F

High & Low Weather Summary for the Past Weeks

 TemperatureHumidityPressure
High90 °F (Jun 23, 2:50 PM)100% (Jun 12, 10:20 PM)30.24 "Hg (Jun 12, 10:20 PM)
Low46 °F (Jun 10, 4:50 AM)30% (Jun 10, 4:20 PM)29.47 "Hg (Jun 14, 3:20 PM)
Average62 °F75%29.88 "Hg
* Reported Jun 9 9:20 PM — Jun 24 9:20 PM, Oelde, Weather by CustomWeather, © 2016

Note: Actual official high and low records may vary slightly from our data, if they occured in-between our weather recording intervals... More about our weather records

Advertising

Oelde Weather History for the Previous 24 Hours

Scroll right to see more
 ConditionsComfort  
Time TempWeatherWind HumidityBarometerVisibility
9:20 PM
Fri, Jun 24
68 °FThundershowers. Scattered clouds.5 mph94%30.04 "Hg4 mi
8:50 PM70 °FThundershowers. Scattered clouds.6 mph88%30.04 "Hg4 mi
8:20 PM72 °FBroken clouds.6 mph88%30.04 "Hg4 mi
7:50 PM72 °FScattered clouds.7 mph88%30.04 "Hg6 mi
7:20 PM73 °FScattered clouds.6 mph83%30.04 "Hg6 mi
6:50 PM72 °FScattered clouds.7 mph88%30.04 "Hg6 mi
6:20 PM73 °FScattered showers. Scattered clouds.5 mph78%30.07 "Hg6 mi
5:50 PM73 °FScattered clouds.5 mph83%30.04 "HgN/A
5:20 PM72 °FPassing clouds.3 mph83%30.04 "HgN/A
4:50 PM72 °FScattered showers. Scattered clouds.7 mph88%30.04 "Hg5 mi
4:20 PM72 °FLight rain. Broken clouds.6 mph94%30.04 "Hg4 mi
3:50 PM72 °FLight rain. Partly sunny.2 mph88%30.07 "Hg4 mi
3:20 PM72 °FThunderstorms. Partly sunny.3 mph88%30.07 "Hg4 mi
2:50 PM72 °FThunderstorms. Partly sunny.7 mph88%30.04 "Hg4 mi
2:20 PM73 °FThunderstorms. Scattered clouds.6 mph83%30.04 "HgN/A
1:50 PM77 °FSprinkles. Scattered clouds.8 mph74%30.04 "HgN/A
1:20 PM81 °FPassing clouds.9 mph62%30.04 "HgN/A
12:50 PM84 °FSunny.5 mph55%30.04 "Hg10 mi
12:20 PM82 °FSunny.6 mph58%30.01 "Hg10 mi
11:50 AM84 °FSunny.3 mph55%30.04 "Hg10 mi
11:20 AM81 °FSunny.9 mph62%30.04 "Hg10 mi
10:50 AM81 °FSunny.7 mph62%30.04 "Hg10 mi
10:20 AM77 °FSunny.12 mph69%30.01 "Hg10 mi
9:50 AM75 °FPassing clouds.9 mph74%30.04 "HgN/A
9:20 AM73 °FScattered clouds.7 mph74%30.04 "HgN/A
8:50 AM72 °FScattered clouds.5 mph78%30.04 "HgN/A
8:20 AM70 °FThunderstorms. Partly sunny.5 mph83%30.04 "HgN/A
7:50 AM70 °FSunny.5 mph83%30.04 "Hg10 mi
7:20 AM70 °FSunny.5 mph78%30.04 "Hg10 mi
6:50 AM70 °FSunny.3 mph78%30.04 "Hg10 mi
6:20 AM66 °FSunny.3 mph83%30.04 "Hg10 mi
5:50 AM68 °FThundershowers. Passing clouds.6 mph78%30.07 "HgN/A
5:20 AM68 °FPassing clouds.3 mph78%30.04 "HgN/A
4:50 AM68 °FClear.10 mph78%30.04 "Hg10 mi
4:20 AM68 °FClear.12 mph78%30.04 "Hg10 mi
3:50 AM68 °FClear.9 mph78%30.07 "Hg10 mi
3:20 AM66 °FClear.9 mph88%30.07 "Hg10 mi
2:50 AM66 °FClear.7 mph88%30.09 "Hg10 mi
2:20 AM68 °FPassing clouds.2 mph83%30.09 "HgN/A
1:50 AM68 °FPassing clouds.5 mph83%30.12 "HgN/A
1:20 AM70 °FSprinkles. Passing clouds.12 mph78%30.12 "HgN/A
12:50 AM73 °FPassing clouds.17 mph69%30.12 "HgN/A
12:20 AM79 °FClear.9 mph54%30.04 "Hg10 mi
11:50 PM
Thu, Jun 23
79 °FClear.8 mph54%30.04 "Hg10 mi
11:20 PM79 °FClear.7 mph58%30.01 "Hg10 mi
10:50 PM79 °FClear.7 mph58%30.01 "Hg10 mi
10:20 PM81 °FSunny.5 mph54%30.01 "Hg10 mi
Weather by CustomWeather, © 2016

See weather overviewHow to use our weather pages